{"data":{"norad_id":56064,"intl_designator":"2023-043U","name":"ONEWEB-0575","alt_names":[],"object_type":"PAYLOAD","status":"ACTIVE","operator":null,"country":"UK","launch_date":"2023-03-26","launch_site_code":"SRILR","launch_vehicle":null,"mission":null,"orbit_class":"UNKNOWN","rcs_meters":null,"size_class":null,"mass_kg":null,"dimensions":null,"purposes":["comms"],"wikipedia_slug":null,"has_3d_model":false,"image_url":null,"decayed_at":null,"tle_current":{"epoch":"2026-05-24T23:27:37.601856Z","epoch_age_seconds":70190,"freshness":"FRESH","line1":"1 56064U 23043U   26144.97751854 -.00000085  00000+0 -25621-3 0  9999","line2":"2 56064  87.9103 233.3759 0002468  99.2115 260.9295 13.16592655155917","mean_motion":13.16592655,"eccentricity":0.0002468,"inclination_deg":87.9103,"raan_deg":233.3759,"arg_perigee_deg":99.2115,"mean_anomaly_deg":260.9295,"bstar":-0.00025621,"rev_number":15591,"period_min":109.37323662952,"perigee_km":1195.893080469,"apogee_km":1199.6325446164,"semimajor_km":7575.8998125427,"source":"CELESTRAK","updated_at":"2026-05-25T13:38:22.703674Z"}}}